Haleyville, AL

5:35 PM CST on February 09, 2016 (GMT -0600)
Haleyville

Weather History for K1M4 - December, 2013

Change the Weather History Date:

Tuesday, December 3, 2013

  Actual Average (KJFX) Record (KJFX)
Temperature  
Mean Temperature 54 °F -  
Max Temperature 62 °F 56 °F 78 °F (2012)
Min Temperature 46 °F 34 °F 12 °F (1960)
Degree Days  
Heating Degree Days 11    
Growing Degree Days 4 (Base 50)    
Moisture  
Dew Point 54 °F    
Average Humidity 99    
Maximum Humidity 100    
Minimum Humidity 82    
Precipitation  
Precipitation 0.00 in - - ()
Sea Level Pressure  
Sea Level Pressure 29.82 in    
Wind  
Wind Speed 4 mph (SSE)    
Max Wind Speed 10 mph    
Max Gust Speed -    
Visibility 3 miles    
Events Fog    
Averages and records for this station are not official NWS values.
T = Trace of Precipitation, MM = Missing Value Source: NWS Daily Summary

Daily Weather History Graph

Daily Weather History Graph

Search for Another Location

Airport or City:

Trip Planner

Search our weather history database for the weather conditions in past years. The results will help you decide how hot, cold, wet, or windy it might be!

Date:

Astronomy

Dec. 03, 2013 Rise Set
Actual Time 6:40 AM CST 4:40 PM CST
Civil Twilight 6:12 AM CST 5:07 PM CST
Nautical Twilight 5:41 AM CST 5:38 PM CST
Astronomical Twilight 5:11 AM CST 6:09 PM CST
Moon 7:10 AM CST (12/3) 5:42 PM CST (12/3)
Length of Visible Light 10h 55m
Length of Day
10h 00m
New Moon, 1% of the Moon is Illuminated
Dec 3
New Moon
Dec 9
First Quarter
Dec 17
Full
Dec 25
Last Quarter
Jan 1
New

Hourly Weather History & Observations

Time (CST) Temp. Dew Point Humidity Pressure Visibility Wind Dir Wind Speed Gust Speed Precip Events Conditions
12:08 AM 51.8 °F 51.8 °F 100% 29.80 in 6.0 mi Variable 4.6 mph - N/A   Mostly Cloudy
12:17 AM 51.8 °F 51.8 °F 100% 29.80 in 5.0 mi SE 4.6 mph - N/A   Scattered Clouds
12:42 AM 48.2 °F 48.2 °F 100% 29.79 in 1.8 mi ESE 3.5 mph - N/A   Mostly Cloudy
12:56 AM 50.0 °F 50.0 °F 100% 29.84 in 2.0 mi ESE 3.5 mph - N/A   Partly Cloudy
1:21 AM 50.0 °F 50.0 °F 100% 29.79 in 2.0 mi ESE 3.5 mph - N/A   Scattered Clouds
1:33 AM 50.0 °F 50.0 °F 100% 29.80 in 1.5 mi ESE 3.5 mph - N/A   Mostly Cloudy
1:44 AM 50.0 °F 50.0 °F 100% 29.80 in 1.0 mi Calm Calm - N/A   Overcast
1:56 AM 50.0 °F 50.0 °F 100% 29.84 in 1.0 mi Calm Calm - N/A   Overcast
2:12 AM 50.0 °F 50.0 °F 100% 29.80 in 1.5 mi Calm Calm - N/A   Overcast
2:27 AM 48.2 °F 48.2 °F 100% 29.80 in 1.0 mi Calm Calm - N/A   Mostly Cloudy
2:31 AM 48.2 °F 48.2 °F 100% 29.80 in 0.5 mi Calm Calm - N/A Fog Fog
2:40 AM 48.2 °F 48.2 °F 100% 29.80 in 0.2 mi Calm Calm - N/A Fog Fog
2:48 AM 48.2 °F 48.2 °F 100% 29.80 in 0.2 mi Calm Calm - N/A Fog Fog
2:56 AM 46.9 °F 46.9 °F 100% 29.84 in 0.2 mi Calm Calm - N/A Fog Fog
3:14 AM 48.2 °F 48.2 °F 100% 29.80 in 0.2 mi Calm Calm - N/A Fog Fog
3:56 AM 48.9 °F 48.9 °F 100% 29.83 in 0.2 mi Variable 3.5 mph - N/A Fog Fog
4:24 AM 48.2 °F 48.2 °F 100% 29.79 in 0.5 mi Calm Calm - N/A Fog Fog
4:56 AM 48.9 °F 48.9 °F 100% 29.83 in 0.5 mi Variable 3.5 mph - N/A Fog Fog
5:03 AM 48.2 °F 48.2 °F 100% 29.79 in 0.2 mi SE 3.5 mph - N/A Fog Fog
5:17 AM 48.2 °F 48.2 °F 100% 29.79 in 0.5 mi Variable 4.6 mph - N/A Fog Fog
5:56 AM 50.0 °F 50.0 °F 100% 29.83 in 0.2 mi SSE 5.8 mph - N/A Fog Fog
6:15 AM 50.0 °F 50.0 °F 100% 29.79 in 0.2 mi SSE 5.8 mph - N/A Fog Fog
6:46 AM 50.0 °F 50.0 °F 100% 29.79 in 0.2 mi SSE 5.8 mph - N/A Fog Fog
6:56 AM 50.0 °F 50.0 °F 100% 29.84 in 0.2 mi SSE 5.8 mph - N/A Fog Fog
7:43 AM 51.8 °F 51.8 °F 100% 29.82 in 0.2 mi South 5.8 mph - N/A Fog Fog
7:56 AM 50.9 °F 50.9 °F 100% 29.86 in 0.5 mi SSE 5.8 mph - N/A Fog Fog
8:07 AM 51.8 °F 51.8 °F 100% 29.82 in 0.2 mi South 8.1 mph - N/A Fog Fog
8:17 AM 51.8 °F 51.8 °F 100% 29.82 in 0.2 mi SSE 6.9 mph - N/A Fog Fog
8:35 AM 53.6 °F 53.6 °F 100% 29.82 in 0.2 mi South 5.8 mph - N/A Fog Fog
8:56 AM 54.0 °F 54.0 °F 100% 29.87 in 0.2 mi South 5.8 mph - N/A Fog Fog
9:56 AM 54.9 °F 54.9 °F 100% 29.88 in 0.2 mi South 6.9 mph - N/A Fog Fog
10:12 AM 55.4 °F 55.4 °F 100% 29.83 in 0.2 mi SSE 6.9 mph - N/A Fog Fog
10:35 AM 55.4 °F 55.4 °F 100% 29.82 in 0.5 mi South 9.2 mph - N/A Fog Fog
10:47 AM 55.4 °F 55.4 °F 100% 29.82 in 0.8 mi South 8.1 mph - N/A   Overcast
10:56 AM 55.9 °F 55.9 °F 100% 29.86 in 2.0 mi South 8.1 mph - N/A   Overcast
11:08 AM 55.4 °F 55.4 °F 100% 29.82 in 3.0 mi SSE 9.2 mph - N/A   Overcast
11:56 AM 56.8 °F 56.8 °F 100% 29.85 in 6.0 mi SSE 8.1 mph - N/A   Overcast
12:12 PM 57.2 °F 57.2 °F 100% 29.80 in 6.0 mi South 6.9 mph - N/A   Overcast
12:56 PM 59.0 °F 59.0 °F 100% 29.83 in 7.0 mi SSE 6.9 mph - N/A   Mostly Cloudy
1:05 PM 59.0 °F 59.0 °F 100% 29.78 in 8.0 mi ESE 5.8 mph - N/A   Mostly Cloudy
1:48 PM 60.8 °F 57.2 °F 88% 29.78 in 9.0 mi SE 6.9 mph - N/A   Mostly Cloudy
1:56 PM 59.9 °F 57.9 °F 93% 29.81 in 10.0 mi SSE 6.9 mph - N/A   Mostly Cloudy
2:27 PM 62.6 °F 57.2 °F 82% 29.77 in 10.0 mi South 6.9 mph - N/A   Mostly Cloudy
2:56 PM 61.0 °F 56.8 °F 86% 29.82 in 10.0 mi SSE 6.9 mph - N/A   Mostly Cloudy
3:56 PM 59.9 °F 57.9 °F 93% 29.83 in 10.0 mi ESE 5.8 mph - N/A   Scattered Clouds
4:56 PM 57.9 °F 56.8 °F 96% 29.84 in 8.0 mi SE 5.8 mph - N/A   Partly Cloudy
5:56 PM 56.8 °F 56.8 °F 100% 29.85 in 4.0 mi East 3.5 mph - N/A   Partly Cloudy
6:30 PM 55.4 °F 55.4 °F 100% 29.80 in 3.0 mi ESE 4.6 mph - N/A   Scattered Clouds
6:56 PM 56.8 °F 56.8 °F 100% 29.84 in 3.0 mi ESE 6.9 mph - N/A   Mostly Cloudy
7:05 PM 57.2 °F 57.2 °F 100% 29.80 in 3.0 mi ESE 5.8 mph - N/A   Mostly Cloudy
7:56 PM 57.9 °F 57.9 °F 100% 29.85 in 4.0 mi SE 8.1 mph - N/A   Overcast
8:56 PM 57.9 °F 57.9 °F 100% 29.86 in 3.0 mi SE 10.4 mph - N/A   Overcast
9:56 PM 59.9 °F 59.9 °F 100% 29.87 in 5.0 mi SSE 10.4 mph - N/A   Overcast
10:56 PM 61.0 °F 61.0 °F 100% 29.88 in 3.0 mi South 9.2 mph - N/A   Overcast
11:07 PM 60.8 °F 60.8 °F 100% 29.84 in 2.0 mi South 8.1 mph - N/A   Overcast
11:13 PM 60.8 °F 60.8 °F 100% 29.84 in 1.8 mi South 9.2 mph - N/A   Overcast
11:32 PM 60.8 °F 60.8 °F 100% 29.83 in 1.2 mi South 8.1 mph - N/A   Overcast
11:42 PM 60.8 °F 60.8 °F 100% 29.83 in 1.0 mi South 6.9 mph - N/A   Overcast
11:56 PM 61.0 °F 61.0 °F 100% 29.87 in 1.0 mi South 10.4 mph - N/A   Overcast